Show Low, AZ

4:16 PM MST on March 23, 2017 (GMT -0700)
Show Low Municipal

Weather History for KSOW - February, 2012

Change the Weather History Date:

Saturday, February 25, 2012

  Actual Average Record
Temperature  
Mean Temperature 44 °F -  
Max Temperature 57 °F 45 °F 71 °F (1986)
Min Temperature 30 °F 29 °F 6 °F (2013)
Degree Days  
Heating Degree Days 22    
Moisture  
Dew Point 18 °F    
Average Humidity 39    
Maximum Humidity 60    
Minimum Humidity 20    
Precipitation  
Precipitation 0.00 in - - ()
Sea Level Pressure  
Sea Level Pressure 30.15 in    
Wind  
Wind Speed 11 mph (SSW)    
Max Wind Speed 24 mph    
Max Gust Speed 32 mph    
Visibility 10 miles    
Events      
Averages and records for this station are not official NWS values.
T = Trace of Precipitation, MM = Missing Value Source: NWS Daily Summary

Daily Weather History Graph

Daily Weather History Graph

Search for Another Location

Airport or City:

Trip Planner

Search our weather history database for the weather conditions in past years. The results will help you decide how hot, cold, wet, or windy it might be!

Date:

Astronomy

Feb. 25, 2012 Rise Set
Actual Time 6:54 AM MST 6:12 PM MST
Civil Twilight 6:29 AM MST 6:37 PM MST
Nautical Twilight 5:59 AM MST 7:06 PM MST
Astronomical Twilight 5:30 AM MST 7:35 PM MST
Moon 8:32 AM MST (2/25) 10:02 PM MST (2/25)
Length of Visible Light 12h 08m
Length of Day
11h 18m
Waxing Crescent, 14% of the Moon is Illuminated
Feb 25
Waxing Crescent
Feb 29
First Quarter
Mar 8
Full
Mar 14
Last Quarter
Mar 22
New

Hourly Weather History & Observations

Time (MST) Temp. Windchill Dew Point Humidity Pressure Visibility Wind Dir Wind Speed Gust Speed Precip Events Conditions
12:15 AM 30.2 °F 24.3 °F 12.2 °F 47% 30.24 in 10.0 mi South 5.8 mph - N/A   Clear
12:35 AM 30.2 °F 25.4 °F 14.0 °F 51% 30.24 in 10.0 mi SSW 4.6 mph - N/A   Clear
12:55 AM 30.2 °F 25.4 °F 17.6 °F 60% 30.24 in 10.0 mi South 4.6 mph - N/A   Clear
1:15 AM 32.0 °F 28.7 °F 17.6 °F 55% 30.24 in 10.0 mi South 3.5 mph - N/A   Clear
1:35 AM 32.0 °F - 17.6 °F 55% 30.23 in 10.0 mi Calm Calm - N/A   Clear
1:55 AM 32.0 °F - 17.6 °F 55% 30.22 in 10.0 mi Calm Calm - N/A   Clear
2:15 AM 32.0 °F 28.7 °F 19.4 °F 60% 30.22 in 10.0 mi SW 3.5 mph - N/A   Clear
2:35 AM 32.0 °F 24.8 °F 19.4 °F 60% 30.21 in 10.0 mi South 8.1 mph - N/A   Clear
2:55 AM 33.8 °F 26.4 °F 19.4 °F 56% 30.21 in 10.0 mi South 9.2 mph - N/A   Clear
3:15 AM 33.8 °F 27.0 °F 19.4 °F 56% 30.21 in 10.0 mi South 8.1 mph - N/A   Clear
3:35 AM 33.8 °F 26.4 °F 19.4 °F 56% 30.20 in 10.0 mi South 9.2 mph - N/A   Clear
3:55 AM 33.8 °F 25.8 °F 19.4 °F 56% 30.20 in 10.0 mi South 10.4 mph - N/A   Clear
4:15 AM 33.8 °F 25.8 °F 17.6 °F 52% 30.19 in 10.0 mi South 10.4 mph - N/A   Clear
4:35 AM 33.8 °F 25.8 °F 19.4 °F 56% 30.18 in 10.0 mi South 10.4 mph - N/A   Clear
4:55 AM 33.8 °F 25.3 °F 17.6 °F 52% 30.18 in 10.0 mi SSW 11.5 mph - N/A   Clear
5:15 AM 33.8 °F 24.8 °F 17.6 °F 52% 30.19 in 10.0 mi SSW 12.7 mph - N/A   Clear
5:35 AM 33.8 °F 24.8 °F 17.6 °F 52% 30.19 in 10.0 mi South 12.7 mph - N/A   Clear
5:55 AM 33.8 °F 24.3 °F 17.6 °F 52% 30.18 in 10.0 mi South 13.8 mph - N/A   Clear
6:15 AM 33.8 °F 24.3 °F 17.6 °F 52% 30.19 in 10.0 mi South 13.8 mph - N/A   Clear
6:35 AM 33.8 °F 24.8 °F 17.6 °F 52% 30.19 in 10.0 mi South 12.7 mph - N/A   Clear
6:55 AM 33.8 °F 23.9 °F 17.6 °F 52% 30.18 in 10.0 mi South 15.0 mph - N/A   Clear
7:15 AM 35.6 °F 26.6 °F 17.6 °F 48% 30.18 in 10.0 mi South 13.8 mph - N/A   Clear
7:35 AM 37.4 °F 28.5 °F 17.6 °F 45% 30.18 in 10.0 mi South 15.0 mph - N/A   Clear
7:55 AM 39.2 °F 30.8 °F 19.4 °F 45% 30.18 in 10.0 mi South 15.0 mph - N/A   Clear
8:15 AM 42.8 °F 35.1 °F 19.4 °F 39% 30.18 in 10.0 mi South 16.1 mph 23.0 mph N/A   Clear
8:35 AM 46.4 °F 39.5 °F 21.2 °F 37% 30.17 in 10.0 mi South 17.3 mph 23.0 mph N/A   Clear
9:15 AM 48.2 °F - 21.2 °F 34% 30.18 in 10.0 mi South 16.1 mph 25.3 mph N/A   Clear
9:35 AM 51.8 °F - 21.2 °F 30% 30.17 in 10.0 mi South 23.0 mph 26.5 mph N/A   Clear
9:55 AM 51.8 °F - 19.4 °F 28% 30.17 in 10.0 mi South 19.6 mph 25.3 mph N/A   Clear
10:35 AM 53.6 °F - 19.4 °F 26% 30.16 in 10.0 mi SSW 19.6 mph 25.3 mph N/A   Clear
10:55 AM 53.6 °F - 17.6 °F 24% 30.15 in 10.0 mi SSW 19.6 mph 32.2 mph N/A   Clear
11:15 AM 55.4 °F - 15.8 °F 21% 30.14 in 10.0 mi SSW 23.0 mph 32.2 mph N/A   Clear
11:55 AM 55.4 °F - 15.8 °F 21% 30.15 in 10.0 mi SSW 23.0 mph 29.9 mph N/A   Clear
12:55 PM 57.2 °F - 17.6 °F 21% 30.13 in 10.0 mi SW 20.7 mph 24.2 mph N/A   Clear
1:15 PM 57.2 °F - 17.6 °F 21% 30.11 in 10.0 mi SW 24.2 mph 32.2 mph N/A   Clear
2:15 PM 57.2 °F - 17.6 °F 21% 30.09 in 10.0 mi SW 18.4 mph 31.1 mph N/A   Clear
2:35 PM 57.2 °F - 17.6 °F 21% 30.08 in 10.0 mi SW 20.7 mph 26.5 mph N/A   Clear
2:55 PM 57.2 °F - 15.8 °F 20% 30.07 in 10.0 mi SW 20.7 mph - N/A   Clear
3:15 PM 57.2 °F - 17.6 °F 21% 30.06 in 10.0 mi SSW 21.9 mph 31.1 mph N/A   Clear
3:35 PM 57.2 °F - 17.6 °F 21% 30.05 in 10.0 mi SSW 23.0 mph 31.1 mph N/A   Clear
4:15 PM 55.4 °F - 17.6 °F 23% 30.05 in 10.0 mi WSW 20.7 mph 27.6 mph N/A   Clear
4:55 PM 55.4 °F - 17.6 °F 23% 30.05 in 10.0 mi SW 21.9 mph - N/A   Clear
5:15 PM 53.6 °F - 15.8 °F 22% 30.05 in 10.0 mi SW 18.4 mph 24.2 mph N/A   Clear
5:35 PM 53.6 °F - 17.6 °F 24% 30.05 in 10.0 mi SW 17.3 mph 24.2 mph N/A   Clear
5:55 PM 51.8 °F - 17.6 °F 26% 30.05 in 10.0 mi SW 16.1 mph 21.9 mph N/A   Clear
6:15 PM 50.0 °F - 17.6 °F 28% 30.06 in 10.0 mi SW 12.7 mph - N/A   Clear
6:35 PM 48.2 °F - 17.6 °F 30% 30.06 in 10.0 mi SSW 10.4 mph - N/A   Clear
6:55 PM 46.4 °F 41.5 °F 17.6 °F 32% 30.05 in 10.0 mi SW 10.4 mph - N/A   Clear
7:15 PM 46.4 °F 41.1 °F 19.4 °F 34% 30.06 in 10.0 mi SW 11.5 mph - N/A   Clear
7:35 PM 44.6 °F 39.7 °F 19.4 °F 37% 30.06 in 10.0 mi SSW 9.2 mph - N/A   Clear
7:55 PM 44.6 °F 39.2 °F 19.4 °F 37% 30.06 in 10.0 mi SW 10.4 mph - N/A   Clear
8:15 PM 42.8 °F 38.6 °F 19.4 °F 39% 30.07 in 10.0 mi SW 6.9 mph - N/A   Clear
8:35 PM 39.2 °F 33.0 °F 19.4 °F 45% 30.07 in 10.0 mi SSW 9.2 mph - N/A   Clear
8:55 PM 37.4 °F 31.4 °F 19.4 °F 48% 30.07 in 10.0 mi South 8.1 mph - N/A   Clear
9:15 PM 37.4 °F 31.4 °F 19.4 °F 48% 30.07 in 10.0 mi South 8.1 mph - N/A   Clear
9:35 PM 37.4 °F 30.3 °F 21.2 °F 52% 30.07 in 10.0 mi South 10.4 mph - N/A   Clear
9:55 PM 35.6 °F 29.2 °F 21.2 °F 56% 30.08 in 10.0 mi South 8.1 mph - N/A   Clear
10:15 PM 35.6 °F 28.6 °F 19.4 °F 52% 30.08 in 10.0 mi SSW 9.2 mph - N/A   Clear
10:35 PM 37.4 °F 30.3 °F 19.4 °F 48% 30.08 in 10.0 mi South 10.4 mph - N/A   Clear
10:55 PM 37.4 °F 30.3 °F 19.4 °F 48% 30.08 in 10.0 mi South 10.4 mph - N/A   Clear
11:15 PM 37.4 °F 30.3 °F 19.4 °F 48% 30.07 in 10.0 mi South 10.4 mph - N/A   Clear
11:35 PM 37.4 °F 30.8 °F 19.4 °F 48% 30.07 in 10.0 mi South 9.2 mph - N/A   Clear
11:55 PM 35.6 °F 29.2 °F 19.4 °F 52% 30.07 in 10.0 mi SSW 8.1 mph - N/A   Clear